Hourly Weather Roundup
Issued by NWS Central Illinois

Home | Current Version | Previous Version | Text Only | Print | Product List | Glossary On
Versions: 1 2 3 4 5 6 7 8 9 10 11 12 13 14 15 16 17 18 19 20 21 22 23 24 25 26 27 28 29 30 31 32 33 34 35 36 37 38 39 40 41 42 43 44 45 46 47 48 49 50
000
NZUS43 KILX 210710
HWRILX

Area Weather Roundup
National Weather Service Lincoln IL
200 AM CDT SAT APR 21 2018

NOTE:  "FAIR" indicates few or no clouds below 12,000 feet, with
       no sigificant weather and/or obstructions to visibility.


CITY           SKY/WX    TMP DP  RH WIND       PRES   REMARKS
Bloomington    FAIR      41  27  57 E8        30.40F
Champaign      FAIR      42  26  53 NE10      30.39F
Danville       FAIR      41  27  56 NE8       30.38F
Decatur        FAIR      38  27  64 E5        30.37F WCI  34
Effingham      FAIR      49  28  45 E7        30.36F
Flora          FAIR      47  29  50 E5        30.35F
Galesburg      FAIR      53  28  37 E7        30.39R
Jacksonville   CLOUDY    41  28  60 E6        30.35F
Lacon          FAIR      43  25  48 E8        30.40F
Lawrenceville  FAIR      46  27  47 NE8       30.37F
Litchfield     CLOUDY    46  26  45 E8        30.34F
$$


CITY           SKY/WX    TMP DP  RH WIND       PRES   REMARKS
Lincoln        FAIR      44  32  62 E7        30.38F
Macomb         CLOUDY    44  27  50 E7        30.38S
Mattoon        FAIR      45  25  45 E8        30.36F
Mt Carmel AP   FAIR      44  29  56 E6        30.36F
Olney-Noble AP FAIR      46  24  41 E8        30.36F
Paris AP       FAIR      43  28  55 E6        30.39F
Peoria         FAIR      49  23  36 E8        30.38F
Pontiac        FAIR      39  27  62 E9        30.42F WCI  33
Rantoul        FAIR      44  29  56 NE7       30.40S
Robinson       FAIR      40  28  60 E5        30.39S
Springfield    FAIR      47  27  45 E6        30.37F
Taylorville    FAIR      47  25  42 E10       30.36F
$$

...REGIONAL REPORTS...


CITY           SKY/WX    TMP DP  RH WIND       PRES   REMARKS
Chicago O`Hare MOCLDY    42  19  39 CALM      30.43F
Kankakee       FAIR      39  20  46 E7        30.42F WCI  34
La Salle       FAIR      44  24  47 E7        30.42F
Moline         FAIR      45  31  58 E7        30.38F
Mount Sterling CLOUDY    47  25  42 E6        30.34F
Mount Vernon   FAIR      44  28  53 NE6       30.33F
Pittsfield     MOCLDY    47  26  44 E3        30.35F
Quincy         MOCLDY    47  23  38 E7        30.34F
Rockford       MOCLDY    41  19  41 CALM      30.43F
$$


CITY           SKY/WX    TMP DP  RH WIND       PRES   REMARKS
Burlington     CLOUDY    48  23  37 E6        30.36S
Cedar Rapids   FAIR      48  25  40 E3        30.38R
Des Moines     CLOUDY    51  23  33 E5        30.35R
Kirksville     CLOUDY    48  25  40 E8        30.33S
Ottumwa        CLOUDY    48  25  40 E5        30.35F
St Louis       CLOUDY    46  28  49 E7        30.33F
$$


CITY           SKY/WX    TMP DP  RH WIND       PRES   REMARKS
Terre Haute    FAIR      38  29  70 E3        30.39F
Evansville     FAIR      45  31  58 NE6       30.35F
Indianapolis   FAIR      44  24  45 E7        30.41F
Lafayette      FAIR      42  23  46 NE6       30.41F
Madison        FAIR      31  24  75 CALM      30.42F
Milwaukee      FAIR      38  20  48 CALM      30.44F
$$






USA.gov is the U.S. government's official web portal to all federal, state and local government web resources and services.